Starlink 5491

operational
NORAD ID: 55332 Int'l Des: 2023-013 Owner: SPXS Country: US Constellation: starlink
LEOCIRCULAR

关于 Starlink 5491

正在加载描述...

实时位置

正在加载3D地球...

即将过境

高度历史

Altitude vs Time

uPlot chart will show altitude changes over time

两行轨道根数

1 55332U 23013B 26033.23141685 .00001214 00000-0 10496-3 0 9992
2 55332 43.0034 120.1495 0001203 271.5484 88.5221 15.02537787166524
Epoch: Feb 2, 2026 • Age: 26 hours

当前状态

高度 558.8 km
速度 7.59 km/s
星下点 18.36°N, 23.62°E
发射日期 Jan 26, 2023
运行时间 3 years
类型 internet

技术详情

分类 Payload
质量 305.00 kg
干质量 290.00 kg
总质量 305.00 kg
长度 0.20 m
直径 2.80 m
跨度 9.00 m
形状 Box + pan
制造商 SPXS
平台类型 Starlink
阶段状态 In Orbit
所有者/国家 SPXS/US

大型星座

Loading constellations...